Location: Zagreb
(45.8000°N, 16.0000°E)
Time: 15:29:00
(UTC+02:00)

Transit 2A Rocket - Pass Details

Date: 15 August 2022
Orbit: 593 x 907 km, 66.7° (Epoch: 25 September)

Event Time Altitude Azimuth Distance (km) Brightness Sun altitude
Rises 02:13:39 0° 333° (NNW) 2,850 8.6 -27.9°
Reaches altitude 10° 02:16:07 10° 345° (NNW) 1,961 7.8 -27.7°
Maximum altitude 02:19:57 29° 47° (NE) 1,154 6.4 -27.5°
Drops below altitude 10° 02:23:58 10° 107° (ESE) 2,055 7.3 -27.2°
Enters shadow 02:24:13 - 109° (ESE) 2,142 7.3 -27.2°
Sets 02:26:36 0° 119° (ESE) 3,014 - -27.0°
